timestamp,wind_dir_avg,wind_spd_max_dir,wind_spd_avg,wind_spd_gust,battery_voltage,lat,long
2017-10-16 00:00:00+00:00,188.0,188.0,4.75,5.03,12.7,47.59359,-54.27349
2017-10-16 00:10:00+00:00,180.0,179.0,5.41,6.23,12.6,47.59359,-54.27349
2017-10-16 00:20:00+00:00,189.0,185.0,5.06,5.55,12.7,47.59359,-54.27349
2017-10-16 00:30:00+00:00,195.0,200.0,3.38,3.8,12.7,47.59359,-54.27349
2017-10-16 00:40:00+00:00,196.0,202.0,2.72,3.34,12.7,47.59359,-54.27349
2017-10-16 00:50:00+00:00,178.0,172.0,2.57,2.91,12.7,47.59359,-54.27349
2017-10-16 01:00:00+00:00,196.0,191.0,2.44,3.21,12.6,47.59359,-54.27349
2017-10-16 01:10:00+00:00,166.0,165.0,2.03,2.22,12.6,47.59359,-54.27349
2017-10-16 01:20:00+00:00,162.0,166.0,1.63,1.83,12.7,47.59359,-54.27349
2017-10-16 01:30:00+00:00,168.0,172.0,2.02,2.21,12.7,47.59359,-54.27349
2017-10-16 01:40:00+00:00,146.0,148.0,3.38,3.89,12.7,47.59359,-54.27349
2017-10-16 01:50:00+00:00,141.0,138.0,3.02,3.61,12.7,47.59359,-54.27349
2017-10-16 02:00:00+00:00,144.0,145.0,1.7,2.68,12.6,47.59359,-54.27349
2017-10-16 02:10:00+00:00,154.0,149.0,2.12,2.76,12.6,47.59359,-54.27349
2017-10-16 02:20:00+00:00,164.0,161.0,2.23,2.89,12.7,47.59359,-54.27349
2017-10-16 02:30:00+00:00,169.0,170.0,3.14,3.56,12.7,47.59359,-54.27349
2017-10-16 02:40:00+00:00,152.0,145.0,2.62,3.03,12.7,47.59359,-54.27349
2017-10-16 02:50:00+00:00,154.0,159.0,3.83,4.2,12.7,47.59359,-54.27349
2017-10-16 03:00:00+00:00,151.0,150.0,4.59,5.22,12.6,47.59359,-54.27349
2017-10-16 03:10:00+00:00,157.0,155.0,6.1,6.75,12.6,47.59359,-54.27349
2017-10-16 03:20:00+00:00,149.0,145.0,4.55,5.35,12.7,47.59359,-54.27349
2017-10-16 03:30:00+00:00,155.0,157.0,7.24,7.92,12.6,47.59359,-54.27349
2017-10-16 03:40:00+00:00,148.0,146.0,4.07,4.75,12.7,47.59359,-54.27349
2017-10-16 03:50:00+00:00,163.0,161.0,4.82,5.31,12.7,47.59359,-54.27349
2017-10-16 04:00:00+00:00,166.0,167.0,4.8,5.58,12.6,47.59359,-54.27349
2017-10-16 04:10:00+00:00,165.0,164.0,8.11,9.15,12.6,47.59359,-54.27349
2017-10-16 04:20:00+00:00,172.0,173.0,8.47,9.21,12.6,47.59359,-54.27349
2017-10-16 04:30:00+00:00,175.0,179.0,8.5,9.35,12.6,47.59359,-54.27349
2017-10-16 04:40:00+00:00,172.0,172.0,8.27,9.19,12.6,47.59359,-54.27349
2017-10-16 04:50:00+00:00,175.0,175.0,6.78,7.25,12.7,47.59359,-54.27349
2017-10-16 05:00:00+00:00,178.0,178.0,7.09,7.87,12.6,47.59359,-54.27349
2017-10-16 05:10:00+00:00,184.0,185.0,6.11,6.66,12.6,47.59359,-54.27349
2017-10-16 05:20:00+00:00,180.0,179.0,5.32,5.73,12.6,47.59359,-54.27349
2017-10-16 05:30:00+00:00,190.0,197.0,4.68,5.61,12.6,47.59359,-54.27349
2017-10-16 05:40:00+00:00,203.0,204.0,2.89,3.38,12.6,47.59359,-54.27349
2017-10-16 05:50:00+00:00,181.0,182.0,4.32,4.77,12.6,47.59359,-54.27349
2017-10-16 06:00:00+00:00,189.0,197.0,3.8,4.3,12.6,47.59359,-54.27349
2017-10-16 06:10:00+00:00,207.0,217.0,3.21,4.43,12.6,47.59359,-54.27349
2017-10-16 06:20:00+00:00,212.0,202.0,6.92,7.91,12.6,47.59359,-54.27349
2017-10-16 06:30:00+00:00,192.0,203.0,9.07,10.61,12.6,47.59359,-54.27349
2017-10-16 06:40:00+00:00,202.0,202.0,9.06,10.84,12.6,47.59359,-54.27349
2017-10-16 06:50:00+00:00,206.0,209.0,10.56,12.77,12.6,47.59359,-54.27349
2017-10-16 07:00:00+00:00,205.0,209.0,11.96,13.44,12.6,47.59359,-54.27349
2017-10-16 07:10:00+00:00,213.0,214.0,11.53,14.36,12.6,47.59359,-54.27349
2017-10-16 07:20:00+00:00,218.0,216.0,12.95,14.74,12.6,47.59359,-54.27349
2017-10-16 07:30:00+00:00,218.0,220.0,13.32,15.14,12.6,47.59359,-54.27349
2017-10-16 07:40:00+00:00,225.0,229.0,13.37,15.67,12.6,47.59359,-54.27349
2017-10-16 07:50:00+00:00,227.0,238.0,14.47,18.05,12.6,47.59359,-54.27349
2017-10-16 08:00:00+00:00,224.0,220.0,13.26,15.2,12.6,47.59359,-54.27349
2017-10-16 08:10:00+00:00,227.0,226.0,13.25,15.14,12.6,47.59359,-54.27349
2017-10-16 08:20:00+00:00,226.0,230.0,12.81,14.76,12.6,47.59359,-54.27349
2017-10-16 08:30:00+00:00,222.0,226.0,13.01,14.28,12.6,47.59359,-54.27349
2017-10-16 08:40:00+00:00,222.0,230.0,12.93,15.84,12.6,47.59359,-54.27349
2017-10-16 08:50:00+00:00,222.0,224.0,12.4,13.99,12.6,47.59359,-54.27349
2017-10-16 09:00:00+00:00,223.0,219.0,11.46,12.56,12.6,47.59359,-54.27349
2017-10-16 09:10:00+00:00,235.0,230.0,10.88,13.15,12.5,47.59359,-54.27349
2017-10-16 09:20:00+00:00,239.0,241.0,13.28,16.0,12.6,47.59359,-54.27349
2017-10-16 09:30:00+00:00,238.0,245.0,13.05,14.95,12.6,47.59359,-54.27349
2017-10-16 09:40:00+00:00,239.0,238.0,13.16,15.72,12.6,47.59359,-54.27349
2017-10-16 09:50:00+00:00,239.0,236.0,12.97,15.08,12.6,47.59359,-54.27349
2017-10-16 10:00:00+00:00,234.0,234.0,12.58,14.57,12.6,47.59359,-54.27349
2017-10-16 10:10:00+00:00,237.0,248.0,15.17,17.33,12.5,47.59359,-54.27349
2017-10-16 10:20:00+00:00,241.0,249.0,13.0,15.32,12.6,47.59359,-54.27349
2017-10-16 10:30:00+00:00,242.0,246.0,13.4,17.11,12.6,47.59359,-54.27349
2017-10-16 10:40:00+00:00,243.0,248.0,11.9,15.41,12.6,47.59359,-54.27349
2017-10-16 10:50:00+00:00,244.0,248.0,12.78,14.92,12.6,47.59359,-54.27349
2017-10-16 11:00:00+00:00,243.0,245.0,12.09,14.86,12.6,47.59359,-54.27349
2017-10-16 11:10:00+00:00,243.0,234.0,12.49,14.18,12.6,47.59359,-54.27349
2017-10-16 11:20:00+00:00,249.0,251.0,13.31,15.53,12.6,47.59359,-54.27349
2017-10-16 11:30:00+00:00,256.0,260.0,13.32,15.07,12.6,47.59359,-54.27349
2017-10-16 11:40:00+00:00,258.0,257.0,13.29,14.87,12.8,47.59359,-54.27349
2017-10-16 11:50:00+00:00,262.0,272.0,14.72,18.84,13.0,47.59359,-54.27349
2017-10-16 12:00:00+00:00,263.0,263.0,14.04,15.76,13.0,47.59359,-54.27349
2017-10-16 12:10:00+00:00,258.0,252.0,13.86,19.32,13.0,47.59359,-54.27349
2017-10-16 12:20:00+00:00,261.0,260.0,12.83,16.1,13.2,47.59359,-54.27349
2017-10-16 12:30:00+00:00,262.0,270.0,14.07,16.12,13.4,47.59359,-54.27349
2017-10-16 12:40:00+00:00,262.0,265.0,14.15,17.83,13.6,47.59359,-54.27349
2017-10-16 12:50:00+00:00,263.0,272.0,14.46,17.13,13.8,47.59359,-54.27349
2017-10-16 13:00:00+00:00,264.0,266.0,15.16,17.81,13.7,47.59359,-54.27349
2017-10-16 13:10:00+00:00,258.0,256.0,13.41,17.08,13.6,47.59359,-54.27349
2017-10-16 13:20:00+00:00,266.0,259.0,13.53,19.12,13.5,47.59359,-54.27349
2017-10-16 13:30:00+00:00,259.0,258.0,14.72,19.13,13.5,47.59359,-54.27349
2017-10-16 13:40:00+00:00,267.0,262.0,14.97,18.33,13.7,47.59359,-54.27349
2017-10-16 13:50:00+00:00,261.0,263.0,15.18,17.73,13.7,47.59359,-54.27349
2017-10-16 14:00:00+00:00,264.0,261.0,13.34,16.86,13.6,47.59359,-54.27349
2017-10-16 14:10:00+00:00,266.0,264.0,13.72,15.73,13.4,47.59359,-54.27349
2017-10-16 14:20:00+00:00,266.0,263.0,12.33,13.72,13.5,47.59359,-54.27349
2017-10-16 14:30:00+00:00,265.0,271.0,13.73,15.92,13.4,47.59359,-54.27349
2017-10-16 14:40:00+00:00,266.0,268.0,14.72,17.33,13.5,47.59359,-54.27349
2017-10-16 14:50:00+00:00,264.0,266.0,12.45,15.61,13.5,47.59359,-54.27349
2017-10-16 15:00:00+00:00,265.0,271.0,12.63,14.56,13.4,47.59359,-54.27349
2017-10-16 15:10:00+00:00,267.0,269.0,12.99,15.16,13.4,47.59359,-54.27349
2017-10-16 15:20:00+00:00,259.0,262.0,12.24,14.94,13.7,47.59359,-54.27349
2017-10-16 15:30:00+00:00,264.0,270.0,14.22,16.72,13.8,47.59359,-54.27349
2017-10-16 15:40:00+00:00,269.0,273.0,14.25,17.45,13.8,47.59359,-54.27349
2017-10-16 15:50:00+00:00,266.0,269.0,12.87,14.47,13.8,47.59359,-54.27349
2017-10-16 16:00:00+00:00,268.0,274.0,11.93,14.63,13.7,47.59359,-54.27349
2017-10-16 16:10:00+00:00,269.0,270.0,12.82,15.84,13.5,47.59359,-54.27349
2017-10-16 16:20:00+00:00,269.0,262.0,11.36,13.44,13.8,47.59359,-54.27349
2017-10-16 16:30:00+00:00,271.0,275.0,14.49,16.62,13.8,47.59359,-54.27349
2017-10-16 16:40:00+00:00,271.0,266.0,10.95,13.26,13.8,47.59359,-54.27349
2017-10-16 16:50:00+00:00,277.0,271.0,15.28,18.02,13.6,47.59359,-54.27349
2017-10-16 17:00:00+00:00,278.0,282.0,12.27,14.22,13.5,47.59359,-54.27349
2017-10-16 17:10:00+00:00,282.0,291.0,13.67,17.3,13.4,47.59359,-54.27349
2017-10-16 17:20:00+00:00,275.0,277.0,12.54,15.1,13.8,47.59359,-54.27349
2017-10-16 17:30:00+00:00,268.0,266.0,9.79,10.83,14.2,47.59359,-54.27349
2017-10-16 17:40:00+00:00,277.0,276.0,12.87,15.76,13.7,47.59359,-54.27349
2017-10-16 17:50:00+00:00,274.0,272.0,13.26,16.16,13.8,47.59359,-54.27349
2017-10-16 18:00:00+00:00,269.0,271.0,9.95,11.71,13.8,47.59359,-54.27349
2017-10-16 18:10:00+00:00,274.0,277.0,10.6,12.37,13.6,47.59359,-54.27349
2017-10-16 18:20:00+00:00,278.0,286.0,12.11,14.82,13.6,47.59359,-54.27349
2017-10-16 18:30:00+00:00,268.0,270.0,10.47,11.99,13.7,47.59359,-54.27349
2017-10-16 18:40:00+00:00,264.0,264.0,9.58,11.06,13.7,47.59359,-54.27349
2017-10-16 18:50:00+00:00,267.0,269.0,10.09,11.98,13.7,47.59359,-54.27349
2017-10-16 19:00:00+00:00,269.0,275.0,10.27,12.02,13.7,47.59359,-54.27349
2017-10-16 19:10:00+00:00,276.0,276.0,9.09,10.01,13.7,47.59359,-54.27349
2017-10-16 19:20:00+00:00,259.0,256.0,9.69,11.19,13.8,47.59359,-54.27349
2017-10-16 19:30:00+00:00,269.0,273.0,8.62,11.08,13.8,47.59359,-54.27349
2017-10-16 19:40:00+00:00,273.0,284.0,10.61,13.95,14.3,47.59359,-54.27349
2017-10-16 19:50:00+00:00,269.0,268.0,9.64,10.66,14.2,47.59359,-54.27349
2017-10-16 20:00:00+00:00,274.0,273.0,11.44,12.31,14.0,47.59359,-54.27349
2017-10-16 20:10:00+00:00,267.0,269.0,11.66,13.91,13.8,47.59359,-54.27349
2017-10-16 20:20:00+00:00,260.0,266.0,11.21,13.97,13.8,47.59359,-54.27349
2017-10-16 20:30:00+00:00,261.0,263.0,10.28,11.5,13.7,47.59359,-54.27349
2017-10-16 20:40:00+00:00,264.0,264.0,9.97,11.47,13.5,47.59359,-54.27349
2017-10-16 20:50:00+00:00,258.0,264.0,10.36,12.36,13.4,47.59359,-54.27349
2017-10-16 21:00:00+00:00,254.0,251.0,9.87,11.14,13.3,47.59359,-54.27349
2017-10-16 21:10:00+00:00,255.0,254.0,9.21,10.36,13.1,47.59359,-54.27349
2017-10-16 21:20:00+00:00,253.0,251.0,9.99,11.44,13.0,47.59359,-54.27349
2017-10-16 21:30:00+00:00,256.0,255.0,9.24,11.27,13.0,47.59359,-54.27349
2017-10-16 21:40:00+00:00,261.0,259.0,8.34,9.55,13.0,47.59359,-54.27349
2017-10-16 21:50:00+00:00,267.0,268.0,8.94,9.76,13.0,47.59359,-54.27349
2017-10-16 22:00:00+00:00,265.0,267.0,7.65,8.73,12.9,47.59359,-54.27349
2017-10-16 22:10:00+00:00,268.0,267.0,7.25,8.07,12.7,47.59359,-54.27349
2017-10-16 22:20:00+00:00,287.0,286.0,5.74,6.55,12.8,47.59359,-54.27349
2017-10-16 22:30:00+00:00,296.0,300.0,6.83,7.8,12.8,47.59359,-54.27349
2017-10-16 22:40:00+00:00,298.0,307.0,6.48,7.55,12.8,47.59359,-54.27349
2017-10-16 22:50:00+00:00,304.0,309.0,5.99,7.17,12.8,47.59359,-54.27349
2017-10-16 23:00:00+00:00,290.0,288.0,3.64,4.1,12.7,47.59359,-54.27349
2017-10-16 23:10:00+00:00,289.0,299.0,3.91,4.5,12.6,47.59359,-54.27349
2017-10-16 23:20:00+00:00,282.0,281.0,3.96,4.32,12.7,47.59359,-54.27349
2017-10-16 23:30:00+00:00,305.0,306.0,4.66,5.17,12.7,47.59359,-54.27349
2017-10-16 23:40:00+00:00,305.0,309.0,4.01,4.63,12.8,47.59359,-54.27349
2017-10-16 23:50:00+00:00,344.0,346.0,5.55,6.49,12.8,47.59359,-54.27349
